Location: Borotín
(49.5055°N, 14.6142°E)
Time: 12:03:34
(UTC+00:00)

NOSS 3-4 (A) - Pass Details

Date: 27 May 2022
Orbit: 837 x 1375 km, 63.4° (Epoch: 14 June)

Event Time Altitude Azimuth Distance (km) Brightness Sun altitude
Rises 02:17:17 0° 316° (NW) 3,730 6.6 -6.7°
Reaches altitude 10° 02:19:45 10° 319° (NW) 2,847 6.0 -6.4°
Maximum altitude 02:26:33 73° 44° (NE) 1,195 4.2 -5.6°
Drops below altitude 10° 02:34:19 10° 130° (SE) 3,230 6.4 -4.6°
Sets 02:37:17 0° 132° (SE) 4,259 6.9 -4.3°
